LUME 1 (43908 NORAD) Tracking and Keplerian Element Data

This shows tracking and keplerian element data for the satellite.

Feedback or suggestion? Click here.




ElementValue
Catalog43908
NameLUME 1
Epoch Orbit3010
Epoch Day193.69465964
Epoch Year2019
RAAN98.292
Inclination97.2885
Eccentricity0.0019883
Argument of Perigee266.9491
Mean Anonmoly92.9471
Mean Motion15.24362705
Decay Rate7.47E-06
L11 43908U 18111AJ 19193.69465964 .00000747 00000-0 33234-4 0 9995
L22 43908 97.2885 98.2920 0019883 266.9491 92.9471 15.24362705 30102

Live tracking and technical data element details for LUME 1 (NORAD 43908). LUME 1 can be tracked NOW for your location showing map with azimuth and elevation plus other details from your city location.

Track the satellite on the map from your city or location and see movement details for azimuth, elevation, latitude, longitude, range, height, and movement on the map or in text.







IsCatalogInMostPopularTable: catalog: 43908, numindb: 156
Update: records affected: 1



GetName: 43908 LUME 1

Hit Count: updated at: Tue, 16 Jul 2019 15:22:49 GMT